DAL823 RJBB-WAAA

Flight info

Callsign DAL823
Flight time N/A
Altitude 32000
Route KEC A597 OTOWA Y47 MAYON A597 TAPOP Y47 BUBDO A590 GURAG G578 TAC W9 DAO R342 MWB W32 VENRU
Aircraft B773/H-VGDW/C

Departure

Time 2026-05-01 13:22
Airport Kansai International Airport (RJBB)

Arrival

Time N/A
Airport Sultan Hasanuddin International Airport (WAAA)
Time Latitude Longitude Altitude Speed Heading
2026-05-01 12:40 34.42957 135.23911 19 ft 0 kts 321°
2026-05-01 13:09 34.42946 135.23923 -4 ft 2 kts 321°
2026-05-01 13:10 34.42933 135.23935 28 ft 2 kts 321°
2026-05-01 13:10 34.42920 135.23948 21 ft 2 kts 321°
2026-05-01 13:10 34.42908 135.23960 22 ft 2 kts 320°
2026-05-01 13:10 34.42895 135.23974 22 ft 2 kts 279°
2026-05-01 13:11 34.42900 135.23992 21 ft 2 kts 235°
2026-05-01 13:11 34.42909 135.24008 22 ft 2 kts 234°
2026-05-01 13:11 34.42914 135.24016 22 ft 0 kts 234°
2026-05-01 13:11 34.42918 135.24023 21 ft 2 kts 234°
2026-05-01 13:12 34.42927 135.24039 20 ft 2 kts 234°
2026-05-01 13:12 34.42935 135.24053 20 ft 0 kts 234°
2026-05-01 13:14 34.42927 135.24039 20 ft 8 kts 234°
2026-05-01 13:15 34.42880 135.24005 22 ft 8 kts 186°
2026-05-01 13:15 34.42829 135.24031 24 ft 8 kts 146°
2026-05-01 13:15 34.42787 135.24072 28 ft 8 kts 127°
2026-05-01 13:15 34.42780 135.24116 27 ft 8 kts 81°
2026-05-01 13:16 34.42819 135.24193 23 ft 8 kts 52°
2026-05-01 13:16 34.42854 135.24246 24 ft 8 kts 51°
2026-05-01 13:16 34.42913 135.24336 25 ft 16 kts 51°
2026-05-01 13:17 34.43103 135.24618 22 ft 16 kts 51°
2026-05-01 13:17 34.43174 135.24723 25 ft 16 kts 50°
2026-05-01 13:18 34.43316 135.24932 26 ft 16 kts 51°
2026-05-01 13:18 34.43385 135.25039 31 ft 16 kts 51°
2026-05-01 13:18 34.43456 135.25144 27 ft 16 kts 49°
2026-05-01 13:18 34.43527 135.25247 31 ft 16 kts 51°
2026-05-01 13:19 34.43599 135.25354 26 ft 16 kts 51°
2026-05-01 13:19 34.43668 135.25459 25 ft 16 kts 51°
2026-05-01 13:19 34.43794 135.25646 29 ft 11 kts 50°
2026-05-01 13:20 34.43829 135.25729 28 ft 11 kts 91°
2026-05-01 13:20 34.43779 135.25801 30 ft 11 kts 141°
2026-05-01 13:20 34.43727 135.25846 29 ft 9 kts 165°
2026-05-01 13:21 34.43633 135.25744 31 ft 14 kts 231°
2026-05-01 13:21 34.43438 135.25456 28 ft 83 kts 231°
2026-05-01 13:21 34.42910 135.24662 26 ft 159 kts 231°
2026-05-01 13:21 34.42082 135.23442 329 ft 201 kts 230°
2026-05-01 13:22 34.41102 135.22206 1364 ft 208 kts 224°
2026-05-01 13:22 34.39688 135.21523 2281 ft 239 kts 189°
2026-05-01 13:22 34.38023 135.21924 3425 ft 248 kts 163°
2026-05-01 13:22 34.36514 135.22971 4524 ft 258 kts 146°
2026-05-01 13:23 34.35027 135.24413 5027 ft 288 kts 144°
2026-05-01 13:23 34.33341 135.25829 5726 ft 295 kts 154°
2026-05-01 13:23 34.31500 135.26979 6777 ft 301 kts 158°
2026-05-01 13:23 34.29580 135.28082 7601 ft 310 kts 158°
2026-05-01 13:24 34.27608 135.29215 8430 ft 318 kts 158°
2026-05-01 13:24 34.25594 135.30389 9254 ft 325 kts 157°
2026-05-01 13:24 34.23512 135.31624 10051 ft 333 kts 157°
2026-05-01 13:25 34.19292 135.34170 11547 ft 344 kts 156°
2026-05-01 13:25 34.17127 135.35487 12130 ft 356 kts 156°
2026-05-01 13:25 34.14875 135.36860 12558 ft 372 kts 156°
2026-05-01 13:25 34.12514 135.38301 13019 ft 387 kts 156°
2026-05-01 13:26 34.10075 135.39792 13450 ft 402 kts 156°
2026-05-01 13:26 34.07524 135.41353 13860 ft 417 kts 156°
2026-05-01 13:26 34.04892 135.42962 14241 ft 432 kts 156°
2026-05-01 13:26 34.02174 135.44624 14617 ft 439 kts 156°
2026-05-01 13:27 33.99438 135.46298 14983 ft 446 kts 156°
2026-05-01 13:27 33.96621 135.48020 15338 ft 451 kts 156°
2026-05-01 13:27 33.91000 135.51453 16093 ft 453 kts 157°
2026-05-01 13:28 33.85370 135.54883 16832 ft 456 kts 157°
2026-05-01 13:28 33.82569 135.56587 17192 ft 457 kts 157°
2026-05-01 13:29 33.76868 135.60049 17988 ft 461 kts 157°
2026-05-01 13:29 33.71082 135.63555 18690 ft 467 kts 157°
2026-05-01 13:30 33.59366 135.70644 20115 ft 476 kts 158°
2026-05-01 13:31 33.53423 135.74234 20842 ft 480 kts 158°
2026-05-01 13:31 33.44418 135.79609 21978 ft 483 kts 162°
2026-05-01 13:32 33.38130 135.82413 22776 ft 483 kts 167°
2026-05-01 13:33 33.28581 135.86502 23879 ft 489 kts 167°
2026-05-01 13:33 33.22214 135.89276 24550 ft 490 kts 167°
2026-05-01 13:34 33.15807 135.92058 25236 ft 490 kts 168°
2026-05-01 13:34 33.09399 135.94835 25932 ft 489 kts 168°
2026-05-01 13:35 33.03008 135.97602 26631 ft 487 kts 168°
2026-05-01 13:35 32.99836 135.98974 26990 ft 486 kts 169°
2026-05-01 13:35 32.93491 136.01716 27693 ft 482 kts 169°
2026-05-01 13:36 32.90349 136.03070 27900 ft 485 kts 169°
2026-05-01 13:36 32.87120 136.04450 27707 ft 499 kts 169°
2026-05-01 13:36 32.80508 136.07291 27855 ft 513 kts 169°
2026-05-01 13:37 32.77140 136.08744 27906 ft 520 kts 169°
2026-05-01 13:37 32.73705 136.10224 27957 ft 527 kts 169°
2026-05-01 13:37 32.66711 136.13223 28057 ft 541 kts 169°
2026-05-01 13:38 32.59569 136.16274 28298 ft 550 kts 169°
2026-05-01 13:38 32.55954 136.17822 28495 ft 552 kts 169°
2026-05-01 13:38 32.52327 136.19375 28714 ft 554 kts 169°
2026-05-01 13:39 32.48700 136.20927 28927 ft 555 kts 169°
2026-05-01 13:39 32.45061 136.22481 29170 ft 556 kts 169°
2026-05-01 13:39 32.41435 136.24029 29428 ft 556 kts 170°
2026-05-01 13:39 32.37824 136.25568 29692 ft 557 kts 170°
2026-05-01 13:40 32.34139 136.27135 29915 ft 557 kts 170°
2026-05-01 13:40 32.30487 136.28686 30101 ft 558 kts 171°
2026-05-01 13:40 32.26828 136.30238 30328 ft 558 kts 171°
2026-05-01 13:40 32.23186 136.31783 30621 ft 555 kts 171°
2026-05-01 13:41 32.19561 136.33323 30951 ft 552 kts 171°
2026-05-01 13:41 32.15958 136.34851 31240 ft 550 kts 171°
2026-05-01 13:41 32.12354 136.36376 31466 ft 549 kts 171°
2026-05-01 13:41 32.08748 136.37898 31601 ft 550 kts 172°
2026-05-01 13:42 32.05148 136.39414 31706 ft 551 kts 172°
2026-05-01 13:42 31.97903 136.42464 31811 ft 552 kts 171°
2026-05-01 13:43 31.90700 136.45504 31842 ft 548 kts 172°
2026-05-01 13:43 31.83553 136.48513 31848 ft 545 kts 172°
2026-05-01 13:44 31.76434 136.51500 31850 ft 542 kts 172°
2026-05-01 13:44 31.69340 136.54470 31852 ft 540 kts 172°
2026-05-01 13:45 31.62277 136.57425 31851 ft 538 kts 172°
2026-05-01 13:45 31.55231 136.60369 31863 ft 535 kts 171°
2026-05-01 13:46 31.48198 136.62968 31854 ft 511 kts 186°
2026-05-01 13:46 31.44789 136.62969 31877 ft 476 kts 202°
2026-05-01 13:46 31.41668 136.62019 31884 ft 454 kts 213°
2026-05-01 13:46 31.38836 136.60544 31873 ft 440 kts 220°
2026-05-01 13:47 31.36353 136.58596 31863 ft 421 kts 231°
2026-05-01 13:47 31.31989 136.54037 31880 ft 421 kts 231°
2026-05-01 13:48 31.27593 136.49487 31889 ft 426 kts 231°
2026-05-01 13:48 31.23099 136.44883 31886 ft 433 kts 230°
2026-05-01 13:49 31.18560 136.40266 31892 ft 437 kts 230°
2026-05-01 13:49 31.13928 136.35571 31889 ft 439 kts 230°
2026-05-01 13:50 31.09312 136.30899 31894 ft 439 kts 230°
2026-05-01 13:50 31.04741 136.26277 31895 ft 438 kts 230°
2026-05-01 13:51 31.00146 136.21635 31897 ft 436 kts 230°
2026-05-01 13:51 30.95563 136.17010 31900 ft 435 kts 230°
2026-05-01 13:52 30.90999 136.12408 31909 ft 434 kts 230°
2026-05-01 13:52 30.86432 136.07809 31910 ft 434 kts 230°
2026-05-01 13:53 30.81865 136.03216 31914 ft 435 kts 230°
2026-05-01 13:53 30.74972 135.96295 31926 ft 437 kts 229°
2026-05-01 13:54 30.70371 135.91684 31925 ft 438 kts 229°
2026-05-01 13:54 30.65743 135.87053 31934 ft 440 kts 229°
2026-05-01 13:55 30.61088 135.82399 31936 ft 441 kts 229°
2026-05-01 13:55 30.56424 135.77745 31941 ft 443 kts 229°
2026-05-01 13:56 30.51754 135.73090 31938 ft 444 kts 229°
2026-05-01 13:56 30.47066 135.68423 31954 ft 444 kts 229°
2026-05-01 13:57 30.43171 135.64550 31947 ft 444 kts 229°
2026-05-01 13:57 30.37712 135.59129 31946 ft 444 kts 229°
2026-05-01 13:58 30.33786 135.55235 31952 ft 444 kts 229°
2026-05-01 13:58 30.29092 135.50586 31955 ft 444 kts 229°
2026-05-01 13:59 30.24402 135.45945 31956 ft 444 kts 229°
2026-05-01 13:59 30.19708 135.41306 31963 ft 444 kts 229°
2026-05-01 14:00 30.15007 135.36665 31971 ft 444 kts 229°
2026-05-01 14:00 30.10329 135.32032 31964 ft 443 kts 229°
2026-05-01 14:01 30.05681 135.27333 31970 ft 443 kts 229°
2026-05-01 14:01 30.01047 135.22635 31969 ft 444 kts 229°
2026-05-01 14:02 29.96403 135.17942 31966 ft 444 kts 229°
2026-05-01 14:02 29.91775 135.13279 31988 ft 445 kts 229°
2026-05-01 14:03 29.87076 135.08552 31989 ft 445 kts 229°
2026-05-01 14:03 29.82405 135.03861 31993 ft 446 kts 229°
2026-05-01 14:04 29.77762 134.99202 31990 ft 446 kts 229°
2026-05-01 14:04 29.73073 134.94504 31994 ft 447 kts 229°
2026-05-01 14:05 29.68384 134.89812 32002 ft 447 kts 229°
2026-05-01 14:05 29.63692 134.85124 32000 ft 447 kts 229°
2026-05-01 14:06 29.58958 134.80399 32002 ft 447 kts 229°
2026-05-01 14:06 29.54289 134.75745 32001 ft 447 kts 229°
2026-05-01 14:07 29.49589 134.71065 32002 ft 448 kts 229°
2026-05-01 14:08 29.42526 134.64044 32007 ft 448 kts 228°
2026-05-01 14:08 29.37807 134.59360 32012 ft 449 kts 228°
2026-05-01 14:09 29.33070 134.54666 32021 ft 450 kts 228°
2026-05-01 14:09 29.28336 134.49980 32022 ft 451 kts 228°
2026-05-01 14:10 29.23579 134.45277 32019 ft 452 kts 228°
2026-05-01 14:10 29.18820 134.40578 32027 ft 452 kts 228°
2026-05-01 14:11 29.14045 134.35869 32022 ft 453 kts 228°
2026-05-01 14:11 29.06877 134.28812 32028 ft 454 kts 227°
2026-05-01 14:12 29.02071 134.24088 32024 ft 455 kts 227°
2026-05-01 14:12 28.97270 134.19375 32030 ft 456 kts 227°
2026-05-01 14:13 28.93272 134.15455 32031 ft 456 kts 227°
2026-05-01 14:13 28.87650 134.09949 32035 ft 457 kts 227°
2026-05-01 14:14 28.82817 134.05222 32037 ft 457 kts 227°
2026-05-01 14:14 28.77989 134.00506 32039 ft 458 kts 227°
2026-05-01 14:15 28.73133 133.95768 32050 ft 459 kts 227°
2026-05-01 14:15 28.68282 133.91041 32044 ft 459 kts 227°
2026-05-01 14:16 28.63425 133.86314 32041 ft 460 kts 227°
2026-05-01 14:16 28.58588 133.81612 32045 ft 461 kts 227°
2026-05-01 14:17 28.53709 133.76881 32048 ft 461 kts 226°
2026-05-01 14:17 28.48824 133.72150 32047 ft 461 kts 226°
2026-05-01 14:18 28.43939 133.67423 32048 ft 462 kts 226°
2026-05-01 14:18 28.39830 133.63452 32043 ft 462 kts 226°
2026-05-01 14:19 28.34142 133.57960 32046 ft 462 kts 226°
2026-05-01 14:19 28.29242 133.53236 32046 ft 463 kts 226°
2026-05-01 14:20 28.21866 133.46135 32057 ft 464 kts 226°
2026-05-01 14:21 28.16948 133.41408 32053 ft 464 kts 226°
2026-05-01 14:21 28.12017 133.36674 32059 ft 465 kts 226°
2026-05-01 14:22 28.04598 133.29563 32059 ft 466 kts 226°
2026-05-01 14:22 27.99648 133.24826 32062 ft 466 kts 225°
2026-05-01 14:23 27.94695 133.20091 32060 ft 467 kts 225°
2026-05-01 14:23 27.89727 133.15347 32060 ft 467 kts 225°
2026-05-01 14:24 27.84784 133.10646 32058 ft 468 kts 225°
2026-05-01 14:24 27.79782 133.05920 32063 ft 468 kts 225°
2026-05-01 14:25 27.74781 133.01201 32064 ft 469 kts 225°
2026-05-01 14:25 27.69779 132.96481 32070 ft 469 kts 225°
2026-05-01 14:26 27.62262 132.89397 32068 ft 470 kts 225°
2026-05-01 14:27 27.57236 132.84667 32072 ft 470 kts 225°
2026-05-01 14:27 27.52202 132.79937 32068 ft 471 kts 225°
2026-05-01 14:28 27.44656 132.72856 32059 ft 471 kts 224°
2026-05-01 14:28 27.39621 132.68139 32074 ft 471 kts 224°
2026-05-01 14:29 27.34584 132.63425 32076 ft 471 kts 224°
2026-05-01 14:30 27.24510 132.54015 32074 ft 471 kts 224°
2026-05-01 14:31 27.16953 132.46972 32079 ft 471 kts 224°
2026-05-01 14:31 27.11936 132.42302 32078 ft 471 kts 224°
2026-05-01 14:32 27.06896 132.37617 32078 ft 471 kts 224°
2026-05-01 14:32 27.01838 132.32921 32083 ft 472 kts 224°
2026-05-01 14:33 26.96789 132.28240 32084 ft 472 kts 224°
2026-05-01 14:33 26.91726 132.23550 32084 ft 472 kts 224°
2026-05-01 14:34 26.86664 132.18868 32082 ft 472 kts 224°
2026-05-01 14:34 26.81591 132.14180 32086 ft 472 kts 224°
2026-05-01 14:35 26.76531 132.09510 32087 ft 472 kts 223°
2026-05-01 14:35 26.71445 132.04822 32083 ft 473 kts 223°
2026-05-01 14:36 26.66376 132.00155 32080 ft 473 kts 223°
2026-05-01 14:36 26.61281 131.95470 32084 ft 474 kts 223°
2026-05-01 14:37 26.56185 131.90790 32087 ft 474 kts 223°
2026-05-01 14:37 26.51094 131.86120 32087 ft 475 kts 223°
2026-05-01 14:38 26.45984 131.81437 32084 ft 475 kts 223°
2026-05-01 14:38 26.40892 131.76777 32084 ft 476 kts 223°
2026-05-01 14:39 26.35746 131.72073 32086 ft 476 kts 223°
2026-05-01 14:39 26.30618 131.67391 32086 ft 476 kts 223°
2026-05-01 14:40 26.25481 131.62706 32082 ft 476 kts 223°
2026-05-01 14:40 26.20364 131.58045 32082 ft 476 kts 223°
2026-05-01 14:41 26.15239 131.53383 32088 ft 476 kts 223°
2026-05-01 14:41 26.10147 131.48754 32087 ft 476 kts 223°
2026-05-01 14:42 26.05015 131.44096 32087 ft 476 kts 223°
2026-05-01 14:42 25.99890 131.39449 32086 ft 476 kts 223°
2026-05-01 14:43 25.94755 131.34797 32083 ft 476 kts 223°
2026-05-01 14:43 25.89635 131.30164 32085 ft 476 kts 223°
2026-05-01 14:44 25.84448 131.25557 32080 ft 478 kts 219°
2026-05-01 14:44 25.76244 131.19223 32081 ft 479 kts 218°
2026-05-01 14:45 25.68018 131.12915 32081 ft 480 kts 219°
2026-05-01 14:46 25.62530 131.08688 32080 ft 480 kts 219°
2026-05-01 14:46 25.55196 131.03039 32086 ft 480 kts 219°
2026-05-01 14:47 25.49709 130.98818 32079 ft 480 kts 219°
2026-05-01 14:48 25.41472 130.92492 32080 ft 481 kts 219°
2026-05-01 14:48 25.33262 130.86199 32080 ft 482 kts 219°
2026-05-01 14:49 25.22225 130.77755 32079 ft 482 kts 219°
2026-05-01 14:50 25.11195 130.69335 32077 ft 482 kts 218°
2026-05-01 14:51 25.02915 130.63027 32074 ft 482 kts 218°
2026-05-01 14:52 24.94635 130.56730 32075 ft 482 kts 218°
2026-05-01 14:53 24.86366 130.50451 32076 ft 481 kts 218°
2026-05-01 14:53 24.80851 130.46269 32076 ft 481 kts 218°
2026-05-01 14:54 24.75337 130.42092 32076 ft 481 kts 218°
2026-05-01 14:54 24.69851 130.37940 32072 ft 481 kts 218°
2026-05-01 14:55 24.64310 130.33752 32073 ft 481 kts 218°
2026-05-01 14:55 24.58792 130.29586 32073 ft 481 kts 218°
2026-05-01 14:56 24.53275 130.25425 32074 ft 481 kts 218°
2026-05-01 14:56 24.47763 130.21272 32073 ft 481 kts 218°
2026-05-01 14:57 24.42246 130.17119 32073 ft 481 kts 218°
2026-05-01 14:57 24.34007 130.10915 32069 ft 481 kts 219°
2026-05-01 14:58 24.28552 130.06683 32062 ft 480 kts 219°
2026-05-01 14:58 24.23116 130.02427 32083 ft 480 kts 219°
2026-05-01 14:59 24.17675 129.98183 32071 ft 481 kts 219°
2026-05-01 14:59 24.12221 129.93946 32076 ft 481 kts 219°
2026-05-01 15:00 24.04027 129.87595 32073 ft 481 kts 219°
2026-05-01 15:01 23.98576 129.83375 32066 ft 481 kts 219°
2026-05-01 15:01 23.93116 129.79153 32062 ft 481 kts 219°
2026-05-01 15:02 23.87644 129.74924 32066 ft 481 kts 219°
2026-05-01 15:02 23.82179 129.70706 32062 ft 481 kts 219°
2026-05-01 15:03 23.76713 129.66492 32063 ft 481 kts 219°
2026-05-01 15:03 23.71257 129.62290 32066 ft 481 kts 219°
2026-05-01 15:04 23.65776 129.58073 32063 ft 481 kts 219°
2026-05-01 15:04 23.60308 129.53870 32059 ft 481 kts 219°
2026-05-01 15:05 23.54841 129.49673 32062 ft 481 kts 219°
2026-05-01 15:05 23.49368 129.45476 32057 ft 481 kts 219°
2026-05-01 15:06 23.43881 129.41272 32063 ft 481 kts 219°
2026-05-01 15:06 23.38411 129.37085 32060 ft 482 kts 219°
2026-05-01 15:07 23.32926 129.32891 32054 ft 482 kts 219°
2026-05-01 15:07 23.27431 129.28693 32055 ft 482 kts 219°
2026-05-01 15:08 23.21951 129.24512 32061 ft 482 kts 219°
2026-05-01 15:08 23.16454 129.20321 32054 ft 482 kts 219°
2026-05-01 15:09 23.10958 129.16136 32053 ft 482 kts 219°
2026-05-01 15:09 23.05463 129.11954 32054 ft 482 kts 219°
2026-05-01 15:10 22.99955 129.07766 32050 ft 482 kts 219°
2026-05-01 15:10 22.92009 129.01142 32046 ft 480 kts 222°
2026-05-01 15:11 22.84162 128.94402 32044 ft 480 kts 222°
2026-05-01 15:12 22.78889 128.89938 32045 ft 480 kts 221°
2026-05-01 15:12 22.70949 128.83257 32041 ft 480 kts 221°
2026-05-01 15:14 22.57767 128.72184 32042 ft 479 kts 221°
2026-05-01 15:14 22.49867 128.65559 32042 ft 479 kts 221°
2026-05-01 15:15 22.39345 128.56750 32041 ft 479 kts 221°
2026-05-01 15:16 22.28874 128.48001 32037 ft 478 kts 221°
2026-05-01 15:18 22.15703 128.37020 32039 ft 479 kts 221°
2026-05-01 15:19 22.05154 128.28244 32039 ft 479 kts 221°
2026-05-01 15:19 21.97247 128.21678 32024 ft 479 kts 221°
2026-05-01 15:20 21.89309 128.15095 32018 ft 479 kts 221°
2026-05-01 15:21 21.84034 128.10726 32036 ft 479 kts 221°
2026-05-01 15:21 21.78747 128.06351 32029 ft 480 kts 221°
2026-05-01 15:22 21.70826 127.99804 32026 ft 480 kts 221°
2026-05-01 15:22 21.65504 127.95411 32028 ft 480 kts 221°
2026-05-01 15:23 21.60192 127.91029 32031 ft 481 kts 221°
2026-05-01 15:23 21.54885 127.86656 32027 ft 481 kts 221°
2026-05-01 15:24 21.49572 127.82283 32032 ft 481 kts 221°
2026-05-01 15:24 21.44256 127.77911 32028 ft 482 kts 221°
2026-05-01 15:25 21.38932 127.73537 32026 ft 482 kts 221°
2026-05-01 15:25 21.33606 127.69165 32026 ft 482 kts 221°
2026-05-01 15:26 21.28280 127.64797 32023 ft 482 kts 221°
2026-05-01 15:26 21.22944 127.60424 32024 ft 482 kts 220°
2026-05-01 15:27 21.18515 127.56798 32020 ft 482 kts 220°
2026-05-01 15:28 21.09642 127.49540 32021 ft 483 kts 220°
2026-05-01 15:28 21.04298 127.45186 32020 ft 483 kts 219°
2026-05-01 15:29 20.99378 127.42182 32018 ft 489 kts 207°
2026-05-01 15:29 20.96200 127.40851 32028 ft 492 kts 202°
2026-05-01 15:30 20.82739 127.37669 32018 ft 497 kts 195°
2026-05-01 15:31 20.62436 127.33110 32018 ft 497 kts 195°
2026-05-01 15:32 20.48974 127.30045 32014 ft 496 kts 195°
2026-05-01 15:34 20.28709 127.25450 32012 ft 496 kts 195°